Total_Precipitation_Accumulation
0.90 0.86 0.79 0.80 0.75 0.84 0.97 1.07 1.02 0.91 0.88 0.81 0.75 0.86 0.93 1.00 1.05 1.12 1.21 1.23 1.41 1.73 1.97 1.95 1.74 1.53 1.43 1.44 1.51 1.54 1.62 1.74 1.74 1.74 1.78 1.76 1.72 1.60 1.50 1.48 1.41 1.36 1.41
0.94 0.91 0.87 0.89 0.87 0.90 1.04 1.04 0.94 0.99 1.01 0.93 0.80 0.81 0.92 0.99 1.06 1.07 1.11 1.21 1.28 1.39 1.82 2.09 2.05 1.87 1.81 1.68 1.79 1.85 1.84 1.68 1.60 1.68 1.73 1.76 1.79 1.63 1.50 1.43 1.37 1.26 1.24
0.84 0.88 0.89 0.90 0.95 1.04 1.11 1.13 0.95 0.99 0.97 0.90 0.84 0.81 0.81 0.85 0.92 0.97 0.93 0.92 1.00 1.15 1.49 1.90 2.20 2.21 2.26 2.22 2.04 1.96 1.82 1.64 1.60 1.62 1.68 1.64 1.71 1.66 1.55 1.56 1.43 1.38 1.32
0.78 0.91 0.92 0.91 0.95 1.08 1.19 1.24 1.14 1.10 1.05 1.01 0.99 0.93 0.84 0.89 0.86 0.90 0.90 0.85 0.98 0.95 1.17 1.39 1.67 1.95 2.25 2.27 2.09 1.99 1.84 1.55 1.47 1.57 1.63 1.53 1.57 1.61 1.47 1.55 1.43 1.35 1.30
0.85 1.02 1.13 1.15 1.15 1.16 1.17 1.12 1.19 1.19 1.17 1.18 1.11 1.06 0.98 0.94 0.97 0.88 0.90 0.94 0.89 0.92 1.03 0.95 1.04 1.27 1.68 1.93 2.03 2.20 2.11 1.67 1.44 1.53 1.63 1.46 1.44 1.55 1.40 1.40 1.36 1.26 1.21
1.19 1.33 1.35 1.43 1.49 1.39 1.37 1.31 1.34 1.27 1.21 1.28 1.17 1.07 0.99 0.91 1.00 1.01 0.99 1.00 0.96 0.90 1.01 0.98 0.98 0.92 1.18 1.50 1.80 2.14 2.34 1.95 1.65 1.59 1.69 1.58 1.47 1.55 1.40 1.37 1.39 1.19 1.12
1.52 1.74 1.71 1.78 1.81 1.71 1.70 1.73 1.92 1.87 1.60 1.36 1.42 1.27 1.07 0.92 1.04 1.08 1.07 1.09 1.10 1.16 1.23 1.15 1.06 1.04 0.93 0.99 1.21 1.65 2.25 2.15 1.92 1.75 1.73 1.66 1.46 1.40 1.27 1.27 1.34 1.24 1.09
1.45 1.59 1.84 1.95 1.89 1.95 2.09 2.10 2.44 2.59 2.13 1.69 1.70 1.86 1.60 1.38 1.11 0.96 1.03 1.05 1.15 1.37 1.38 1.16 1.07 1.03 0.95 0.94 0.75 1.02 1.64 1.95 1.95 1.87 1.75 1.62 1.47 1.32 1.30 1.38 1.35 1.39 1.26
1.41 1.52 1.67 1.83 1.85 1.93 2.04 2.18 2.52 3.02 2.78 2.20 1.94 2.19 1.93 1.70 1.48 1.14 1.00 1.01 1.14 1.39 1.54 1.40 1.28 1.19 1.03 1.02 0.89 0.79 1.00 1.31 1.82 2.06 1.99 1.79 1.68 1.47 1.41 1.53 1.36 1.47 1.50
1.31 1.38 1.52 1.66 1.79 1.82 1.95 2.05 2.18 2.69 3.05 2.73 2.41 2.05 1.72 1.67 1.78 1.56 1.22 1.17 1.21 1.28 1.36 1.34 1.33 1.39 1.27 1.15 1.01 0.81 0.81 0.91 1.47 1.91 2.12 2.08 1.95 1.75 1.75 1.93 1.66 1.53 1.52
1.41 1.40 1.54 1.62 1.64 1.70 1.80 2.13 2.39 2.66 2.87 2.84 2.75 2.54 2.27 1.99 1.67 1.78 1.70 1.46 1.35 1.25 1.26 1.32 1.34 1.39 1.40 1.33 1.34 1.04 0.83 0.83 1.10 1.56 2.01 2.32 2.26 2.13 2.24 2.33 1.94 1.76 1.68
1.52 1.55 1.60 1.62 1.59 1.62 1.73 1.95 2.24 2.45 2.76 2.94 2.84 2.62 2.49 2.36 2.14 2.02 1.78 1.65 1.62 1.43 1.34 1.33 1.27 1.30 1.42 1.55 1.47 1.41 1.01 0.81 0.85 1.17 1.51 1.90 2.19 2.29 2.47 2.49 2.23 2.19 2.03
1.42 1.44 1.54 1.67 1.75 1.78 1.89 2.06 2.20 2.11 2.33 2.71 2.71 2.55 2.45 2.25 2.23 2.28 2.11 1.81 1.67 1.40 1.32 1.26 1.22 1.34 1.34 1.37 1.56 1.72 1.24 0.92 0.77 1.00 1.18 1.32 1.58 1.93 2.35 2.60 2.59 2.58 2.49
1.37 1.30 1.35 1.45 1.59 1.77 1.82 1.86 1.88 1.85 1.97 2.23 2.31 2.47 2.57 2.33 2.19 2.07 1.99 2.04 1.81 1.54 1.39 1.26 1.16 1.19 1.24 1.29 1.49 1.66 1.27 1.06 0.81 0.78 0.88 1.07 1.17 1.30 1.64 2.07 2.46 2.57 2.71
1.13 1.05 1.05 1.10 1.18 1.27 1.35 1.50 1.59 1.71 1.75 1.88 2.03 2.14 2.29 2.38 2.30 2.08 1.99 1.98 1.95 1.77 1.56 1.43 1.28 1.10 1.22 1.33 1.51 1.35 1.22 1.20 1.02 0.84 0.77 0.84 0.96 1.00 1.14 1.27 1.50 1.83 2.24
1.05 0.97 0.93 0.89 0.86 0.85 0.90 1.08 1.28 1.41 1.50 1.66 1.84 1.96 1.98 2.04 2.23 2.18 2.00 1.98 1.91 1.79 1.66 1.47 1.36 1.22 1.41 1.33 1.45 1.30 1.30 1.36 1.07 0.94 0.86 0.82 0.83 0.77 0.76 0.80 0.83 0.99 1.37
1.02 1.01 0.92 0.86 0.93 0.93 0.90 0.96 1.03 1.09 1.15 1.30 1.44 1.57 1.72 1.98 2.27 2.29 2.23 2.10 1.98 1.85 1.63 1.48 1.27 1.20 1.51 1.62 1.52 1.41 1.37 1.32 1.08 0.98 0.90 0.82 0.80 0.75 0.70 0.64 0.65 0.70 0.84
0.69 0.79 0.87 0.83 0.81 0.84 0.86 0.93 0.95 0.99 1.02 1.11 1.21 1.35 1.53 1.81 2.15 2.36 2.43 2.31 2.16 2.01 1.88 1.72 1.40 1.16 1.28 1.63 1.77 1.70 1.47 1.29 1.15 1.07 0.95 0.85 0.79 0.73 0.68 0.66 0.65 0.65 0.66
0.53 0.57 0.67 0.67 0.77 0.84 0.86 0.89 0.91 0.94 0.97 1.05 1.19 1.25 1.31 1.50 1.70 1.90 2.08 2.21 2.19 2.17 2.15 1.91 1.60 1.33 1.27 1.40 1.66 1.68 1.60 1.55 1.32 1.24 1.24 1.12 0.98 0.88 0.78 0.69 0.68 0.65 0.62
0.55 0.62 0.74 0.78 0.74 0.72 0.77 0.87 0.91 0.86 0.85 0.89 0.97 1.07 1.17 1.22 1.37 1.51 1.62 1.81 2.02 2.26 2.34 2.19 1.92 1.60 1.47 1.37 1.47 1.63 1.70 1.66 1.57 1.38 1.33 1.22 1.20 1.14 1.02 0.86 0.73 0.67 0.67
0.62 0.64 0.74 0.85 0.91 0.87 0.84 0.92 0.88 0.86 0.86 0.84 0.89 0.90 0.97 0.99 1.05 1.23 1.28 1.50 1.82 2.09 2.21 2.28 2.15 1.85 1.58 1.40 1.19 1.30 1.56 1.78 1.80 1.71 1.70 1.45 1.31 1.17 1.09 1.05 0.97 0.85 0.75
0.52 0.51 0.56 0.63 0.72 0.77 0.97 0.92 0.75 0.71 0.77 0.83 0.88 0.87 0.89 0.84 0.82 0.89 1.02 1.15 1.45 1.66 1.80 1.88 1.90 1.75 1.53 1.40 1.35 1.31 1.39 1.53 1.59 1.49 1.54 1.61 1.54 1.38 1.27 1.15 1.16 1.20 1.11
0.44 0.42 0.42 0.42 0.48 0.63 0.71 0.55 0.53 0.59 0.72 0.84 0.91 0.94 0.90 0.84 0.89 0.90 0.92 0.93 1.00 1.18 1.39 1.60 1.63 1.53 1.58 1.49 1.41 1.31 1.32 1.34 1.33 1.44 1.51 1.59 1.57 1.46 1.38 1.36 1.39 1.29 1.23
0.37 0.36 0.41 0.47 0.48 0.50 0.57 0.47 0.46 0.56 0.75 0.88 0.88 0.84 0.91 0.92 0.94 1.01 0.94 1.01 0.97 0.95 1.03 1.08 1.22 1.42 1.57 1.74 1.71 1.60 1.61 1.55 1.46 1.56 1.58 1.53 1.44 1.36 1.27 1.24 1.30 1.18 1.09
0.41 0.41 0.51 0.58 0.52 0.45 0.50 0.50 0.55 0.69 0.82 0.90 0.87 0.87 0.94 0.98 1.11 1.16 1.07 1.12 1.08 1.05 1.02 1.12 1.22 1.32 1.41 1.52 1.67 1.72 1.67 1.64 1.50 1.43 1.44 1.39 1.29 1.30 1.30 1.18 1.11 1.10 1.01
0.34 0.41 0.44 0.41 0.41 0.48 0.55 0.52 0.64 0.82 0.95 1.05 1.00 0.99 1.18 1.13 1.11 1.06 1.03 1.18 1.15 1.01 0.94 0.98 1.03 1.11 1.15 1.25 1.37 1.42 1.54 1.61 1.52 1.38 1.21 1.19 1.20 1.24 1.28 1.17 1.06 0.99 0.96